Total_Precipitation_Accumulation
1.72 1.89 1.92 2.02 1.94 2.06 1.97 1.78 1.54 1.45 1.35 1.16 1.12 1.15 1.09 1.04 1.09 1.18 1.36 1.41 1.35 1.50 1.78 1.92 1.78 1.64 1.59 1.55 1.51 1.43 1.36 1.27 1.15 1.01 0.89 0.80 0.74 0.72 0.73 0.74 0.72 0.68 0.64
2.06 2.15 2.20 2.27 2.15 2.13 2.15 2.04 1.79 1.65 1.57 1.43 1.28 1.19 1.15 1.24 1.27 1.23 1.41 1.50 1.42 1.39 1.62 1.95 2.08 2.13 2.14 2.14 1.96 1.72 1.60 1.50 1.43 1.32 1.17 1.01 0.91 0.85 0.82 0.83 0.83 0.78 0.72
2.40 2.40 2.57 2.60 2.45 2.39 2.37 2.29 2.15 1.90 1.83 1.78 1.70 1.52 1.40 1.39 1.54 1.59 1.59 1.71 1.75 1.63 1.67 1.87 2.07 2.21 2.30 2.40 2.27 2.07 1.90 1.80 1.75 1.67 1.53 1.34 1.16 1.04 0.98 0.94 0.92 0.90 0.83
2.74 2.87 2.82 2.67 2.56 2.51 2.52 2.61 2.47 2.22 2.14 2.19 2.10 1.82 1.57 1.56 1.66 1.73 1.72 1.80 1.94 1.86 1.83 1.76 1.83 1.99 2.16 2.34 2.37 2.39 2.30 2.21 2.09 1.97 1.86 1.73 1.55 1.39 1.27 1.19 1.10 1.02 0.94
3.05 3.19 3.17 2.96 2.75 2.67 2.69 2.54 2.55 2.47 2.50 2.45 2.11 1.88 1.64 1.58 1.65 1.68 1.72 1.79 1.96 2.04 2.03 1.85 1.86 2.05 2.18 2.34 2.49 2.61 2.66 2.66 2.51 2.39 2.26 2.15 2.02 1.79 1.58 1.42 1.29 1.21 1.15
3.47 3.50 3.40 3.22 3.06 2.94 2.90 2.79 2.75 2.72 2.57 2.44 2.05 1.85 1.67 1.54 1.55 1.61 1.64 1.69 1.74 1.79 1.86 1.88 1.91 1.84 1.95 2.14 2.36 2.59 2.76 2.89 2.77 2.55 2.40 2.36 2.28 2.12 1.94 1.77 1.61 1.52 1.43
3.87 3.83 3.75 3.60 3.42 3.21 3.06 2.91 2.78 2.65 2.47 2.30 2.14 1.95 1.69 1.47 1.49 1.51 1.47 1.51 1.58 1.58 1.62 1.68 1.83 1.79 1.70 1.89 1.97 2.26 2.54 2.81 2.90 2.81 2.70 2.66 2.61 2.44 2.25 2.06 1.91 1.79 1.69
4.36 4.22 4.13 3.92 3.67 3.44 3.21 3.01 2.77 2.56 2.37 2.21 2.17 2.22 1.99 1.73 1.40 1.21 1.21 1.24 1.28 1.28 1.34 1.42 1.45 1.48 1.48 1.56 1.63 1.80 2.04 2.26 2.47 2.58 2.64 2.63 2.61 2.54 2.42 2.27 2.15 2.07 2.05
4.43 4.11 3.89 3.81 3.60 3.27 3.05 2.88 2.69 2.51 2.29 2.14 2.05 2.18 2.14 1.94 1.60 1.39 1.19 1.09 1.09 1.16 1.21 1.29 1.33 1.28 1.23 1.23 1.31 1.46 1.57 1.64 1.90 2.13 2.28 2.31 2.28 2.24 2.25 2.28 2.27 2.20 2.16
4.12 3.83 3.55 3.28 3.04 2.79 2.56 2.41 2.33 2.27 2.19 2.06 2.00 1.83 1.65 1.54 1.57 1.46 1.28 1.17 1.12 1.13 1.10 1.06 1.10 1.13 1.11 1.10 1.19 1.29 1.36 1.45 1.65 1.76 1.88 1.95 1.95 1.95 1.93 1.92 1.95 1.98 2.04
3.38 3.08 2.81 2.54 2.30 2.12 1.96 1.79 1.74 1.86 1.96 1.95 1.94 1.90 1.74 1.57 1.50 1.43 1.36 1.29 1.23 1.18 1.11 1.06 1.01 1.00 0.98 0.95 0.98 1.14 1.26 1.27 1.33 1.39 1.49 1.56 1.58 1.66 1.72 1.71 1.72 1.80 1.93
2.63 2.36 2.12 1.92 1.73 1.56 1.45 1.39 1.37 1.43 1.55 1.63 1.67 1.71 1.72 1.76 1.73 1.64 1.54 1.48 1.43 1.32 1.20 1.14 1.09 1.07 1.02 0.99 1.05 1.25 1.17 1.17 1.20 1.18 1.16 1.21 1.25 1.30 1.42 1.53 1.62 1.73 1.90
1.86 1.65 1.47 1.35 1.22 1.13 1.09 1.06 1.09 1.16 1.21 1.26 1.35 1.45 1.50 1.53 1.57 1.66 1.73 1.65 1.53 1.32 1.17 1.12 1.09 1.05 1.04 1.01 1.02 1.10 1.00 1.00 1.00 1.00 1.00 1.02 1.07 1.11 1.15 1.22 1.31 1.41 1.54
1.11 0.99 0.91 0.85 0.81 0.80 0.78 0.78 0.82 0.89 0.95 0.98 1.01 1.13 1.26 1.27 1.23 1.31 1.47 1.48 1.47 1.36 1.15 1.06 1.01 0.97 0.93 0.86 0.92 0.93 0.85 0.94 0.89 0.86 0.82 0.79 0.80 0.83 0.87 0.91 0.98 1.05 1.10
0.76 0.68 0.64 0.62 0.60 0.61 0.61 0.60 0.60 0.61 0.68 0.78 0.81 0.88 0.96 0.99 0.95 0.96 1.03 1.15 1.24 1.27 1.13 0.91 0.86 0.85 0.80 0.76 0.82 0.68 0.72 0.83 0.79 0.76 0.72 0.68 0.67 0.67 0.69 0.70 0.71 0.74 0.79
0.54 0.49 0.44 0.41 0.38 0.39 0.42 0.48 0.49 0.46 0.49 0.54 0.57 0.61 0.67 0.70 0.72 0.74 0.80 0.90 1.02 1.10 1.09 0.84 0.72 0.69 0.65 0.58 0.66 0.59 0.62 0.64 0.58 0.56 0.54 0.52 0.50 0.50 0.51 0.53 0.55 0.57 0.59
0.35 0.33 0.31 0.28 0.27 0.27 0.31 0.38 0.41 0.41 0.43 0.44 0.44 0.46 0.49 0.53 0.59 0.57 0.60 0.67 0.76 0.86 0.93 0.79 0.64 0.58 0.57 0.55 0.56 0.54 0.50 0.45 0.42 0.42 0.40 0.40 0.38 0.38 0.39 0.40 0.42 0.44 0.47
0.26 0.25 0.25 0.24 0.22 0.24 0.29 0.33 0.35 0.36 0.39 0.42 0.42 0.40 0.42 0.46 0.50 0.48 0.51 0.55 0.61 0.70 0.79 0.81 0.67 0.57 0.52 0.50 0.49 0.47 0.36 0.32 0.34 0.36 0.33 0.31 0.32 0.33 0.34 0.34 0.33 0.33 0.31
0.25 0.22 0.21 0.22 0.21 0.21 0.25 0.27 0.29 0.32 0.35 0.38 0.35 0.34 0.36 0.38 0.41 0.40 0.43 0.45 0.50 0.55 0.64 0.68 0.58 0.49 0.42 0.38 0.44 0.44 0.37 0.41 0.27 0.23 0.23 0.21 0.23 0.23 0.22 0.22 0.22 0.22 0.19
0.23 0.21 0.19 0.21 0.21 0.18 0.19 0.21 0.21 0.24 0.30 0.30 0.27 0.28 0.31 0.31 0.32 0.35 0.37 0.41 0.47 0.54 0.58 0.59 0.51 0.41 0.38 0.36 0.46 0.54 0.50 0.41 0.31 0.18 0.19 0.17 0.17 0.16 0.17 0.21 0.17 0.17 0.17
0.24 0.24 0.22 0.21 0.20 0.17 0.14 0.15 0.17 0.18 0.23 0.25 0.24 0.23 0.24 0.24 0.27 0.29 0.31 0.37 0.46 0.57 0.61 0.63 0.56 0.48 0.43 0.50 0.57 0.55 0.52 0.40 0.31 0.23 0.27 0.25 0.29 0.44 0.63 0.68 0.47 0.26 0.19
0.24 0.23 0.23 0.22 0.19 0.17 0.17 0.17 0.16 0.19 0.21 0.24 0.26 0.24 0.21 0.19 0.20 0.21 0.23 0.28 0.40 0.53 0.66 0.74 0.69 0.64 0.57 0.62 0.69 0.66 0.66 0.61 0.53 0.33 0.35 0.34 0.43 0.80 1.19 1.38 0.97 0.45 0.31
0.25 0.22 0.19 0.20 0.22 0.19 0.16 0.16 0.16 0.18 0.22 0.28 0.31 0.30 0.23 0.20 0.26 0.28 0.25 0.22 0.27 0.36 0.57 0.77 0.84 0.77 0.71 0.75 0.86 0.84 0.78 0.76 0.68 0.48 0.52 0.55 0.60 0.93 1.02 1.14 1.08 0.69 0.54
0.28 0.26 0.22 0.21 0.23 0.19 0.17 0.18 0.18 0.22 0.25 0.27 0.28 0.29 0.33 0.34 0.28 0.26 0.24 0.28 0.37 0.47 0.55 0.62 0.77 0.75 0.66 0.69 0.81 0.84 0.77 0.71 0.66 0.59 0.63 0.75 0.71 0.85 0.85 1.12 1.31 1.16 0.97
0.29 0.27 0.23 0.23 0.26 0.25 0.21 0.23 0.26 0.31 0.29 0.26 0.23 0.23 0.26 0.30 0.25 0.24 0.30 0.40 0.48 0.54 0.47 0.57 0.66 0.73 0.75 0.72 0.67 0.70 0.83 0.88 0.86 0.69 0.62 0.73 0.79 0.85 0.96 1.28 1.35 1.35 1.26
0.28 0.25 0.24 0.25 0.26 0.27 0.19 0.20 0.24 0.29 0.31 0.27 0.27 0.28 0.25 0.22 0.23 0.25 0.33 0.46 0.57 0.58 0.64 0.81 0.96 1.03 0.97 0.88 0.74 0.76 0.93 1.00 1.01 0.93 0.70 0.72 0.82 0.94 1.22 1.40 1.36 1.26 1.24